Weather History for Columbia Owens, SC

Change the Weather History Date:

Friday, February 14, 2014

  Actual Average Record
Temperature  
Mean Temperature 43 °F 49 °F  
Max Temperature 58 °F 60 °F 72 °F (2000)
Min Temperature 28 °F 38 °F 26 °F (1999)
Degree Days  
Heating Degree Days 22 16  
Month to date heating degree days 277 236  
Since 1 July heating degree days 1835 1728  
Cooling Degree Days 0 0  
Month to date cooling degree days 0 0  
Year to date cooling degree days 0 1  
Moisture  
Dew Point 31 °F    
Average Humidity 65    
Maximum Humidity 92    
Minimum Humidity 36    
Precipitation  
Precipitation 0.00 in 0.13 in 0.81 in (2000)
Month to date precipitation 1.90 1.57  
Year to date precipitation 5.66 5.20  
Sea Level Pressure  
Sea Level Pressure 29.85 in    
Wind  
Wind Speed 4 mph (SW)    
Max Wind Speed 14 mph    
Max Gust Speed 20 mph    
Visibility 9 miles    
Events      
T = Trace of Precipitation, MM = Missing Value Source: NWS Daily Summary

Daily Weather History Graph

Daily Weather History Graph

Search for Another Location

Airport:

Trip Planner

Search our weather history database for the weather conditions in past years. The results will help you decide how hot, cold, wet, or windy it might be!

Date:

Astronomy

Feb. 14, 2014 Rise Set
Actual Time 7:09 AM EST 6:07 PM EST
Civil Twilight 6:44 AM EST 6:32 PM EST
Nautical Twilight 6:14 AM EST 7:02 PM EST
Astronomical Twilight 5:45 AM EST 7:31 PM EST
Moon 6:07 PM EST (2/14) 6:37 AM EST (2/14)
Length of Visible Light 11h 48m
Length of Day
10h 57m
Full, 100% of the Moon is Illuminated
Feb 14
Full
Feb 14
Full
Feb 22
Last Quarter
Mar 1
New
Mar 8
First Quarter

Hourly Weather History & Observations

Time (EST) Temp. Windchill Dew Point Humidity Pressure Visibility Wind Dir Wind Speed Gust Speed Precip Events Conditions
12:53 AM 35.1 °F 31.0 °F 30.9 °F 85% 29.83 in 10.0 mi WSW 4.6 mph - N/A   Clear
1:53 AM 34.0 °F 31.0 °F 30.0 °F 85% 29.85 in 10.0 mi WSW 3.5 mph - N/A   Clear
2:53 AM 34.0 °F 31.0 °F 28.9 °F 82% 29.85 in 10.0 mi SW 3.5 mph - N/A   Clear
3:53 AM 30.9 °F - 27.0 °F 85% 29.84 in 10.0 mi Calm Calm - N/A   Clear
4:53 AM 30.0 °F - 28.0 °F 92% 29.85 in 5.0 mi Calm Calm - N/A   Clear
5:53 AM 28.9 °F - 27.0 °F 92% 29.88 in 5.0 mi Calm Calm - N/A   Clear
6:53 AM 28.9 °F - 27.0 °F 92% 29.88 in 6.0 mi Calm Calm - N/A   Clear
7:53 AM 30.0 °F - 28.0 °F 92% 29.90 in 5.0 mi Calm Calm - N/A   Clear
8:53 AM 37.9 °F 32.7 °F 30.0 °F 73% 29.91 in 10.0 mi SW 6.9 mph - N/A   Clear
9:53 AM 43.0 °F 38.8 °F 30.9 °F 62% 29.91 in 10.0 mi SW 6.9 mph - N/A   Clear
10:53 AM 46.0 °F 41.9 °F 30.9 °F 56% 29.90 in 10.0 mi SSW 8.1 mph - N/A   Clear
11:53 AM 48.9 °F - 30.9 °F 50% 29.89 in 10.0 mi WSW 9.2 mph - N/A   Clear
12:53 PM 51.1 °F - 32.0 °F 48% 29.88 in 10.0 mi WSW 9.2 mph - N/A   Clear
1:53 PM 55.0 °F - 33.1 °F 43% 29.88 in 10.0 mi WSW 6.9 mph - N/A   Clear
2:53 PM 57.0 °F - 33.1 °F 40% 29.86 in 10.0 mi WSW 11.5 mph - N/A   Clear
3:53 PM 57.9 °F - 30.9 °F 36% 29.84 in 10.0 mi WSW 10.4 mph - N/A   Clear
4:53 PM 55.9 °F - 34.0 °F 44% 29.82 in 10.0 mi SSW 4.6 mph - N/A   Clear
5:53 PM 53.1 °F - 34.0 °F 48% 29.84 in 10.0 mi SW 5.8 mph - N/A   Clear
6:53 PM 51.1 °F - 34.0 °F 52% 29.82 in 10.0 mi South 4.6 mph - N/A   Clear
7:53 PM 48.0 °F - 35.1 °F 61% 29.79 in 10.0 mi Calm Calm - N/A   Clear
8:53 PM 46.0 °F - 36.0 °F 68% 29.81 in 10.0 mi Calm Calm - N/A   Clear
9:53 PM 48.0 °F - 34.0 °F 58% 29.79 in 10.0 mi Calm Calm - N/A   Clear
10:53 PM 50.0 °F - 34.0 °F 54% 29.77 in 10.0 mi SSW 4.6 mph - N/A   Scattered Clouds
11:53 PM 48.9 °F - 34.0 °F 56% 29.73 in 10.0 mi SW 4.6 mph - N/A   Mostly Cloudy